Regional Weather Roundup
Issued by NWS Kansas City/Pleasant Hill, MO

Home | Current Version | Previous Version | Graphics & Text | Print | Product List | Glossary Off
Versions: 1 2 3 4 5 6 7 8 9 10 11 12 13 14 15 16 17 18 19 20 21 22 23 24 25 26 27 28 29 30 31 32 33 34 35 36 37 38 39 40 41 42 43 44 45 46 47 48 49 50

000
ASUS43 KEAX 021510
RWREAX

WEATHER ROUNDUP FOR EASTERN KANSAS AND NORTHWEST MISSOURI
NATIONAL WEATHER SERVICE KANSAS CITY/PLEASANT HILL MO
1000 AM CDT WED SEP 02 2015

KSZ040-057-103>105-MOZ028-029-037-043-021600-
...KANSAS CITY METROPOLITAN AREA...

CITY           SKY/WX    TMP DP  RH WIND       PRES   REMARKS
K.C. INTL      RAIN      71  68  90 E9        30.08S FOG
K.C. DOWNTOWN  CLOUDY    76  67  73 E6        30.08R
LEES SUMMIT    CLOUDY    75  67  76 VRB3      30.10R
OLATHE - IXD   CLOUDY    73  68  84 S3        30.09R
OLATHE - OJC   CLOUDY    73  67  81 S6        30.08R
LAWRENCE       LGT RAIN  71  69  93 SE8       30.05S FOG

$$

MOZ001>008-011>017-020>025-030>033-038>040-044>046-053-054-021600-
...NORTHERN AND CENTRAL MISSOURI...

CITY           SKY/WX    TMP DP  RH WIND       PRES   REMARKS
ST. JOSEPH     LGT RAIN  71  69  93 SE12      30.03F
MOSBY          TSTM      72  68  88 CALM      30.09R
WARRENSBURG    MOSUNNY   77  68  73 S5        30.09R
WHITEMAN AFB   PTSUNNY   81  68  65 SW12      30.09R
CLINTON        SUNNY     79  70  73 S3        30.10R
SEDALIA        MOSUNNY   81  69  67 SW12      30.11S
WARSAW         NOT AVBL
CHILLICOTHE      N/A     71  69  93 CALM      30.11R
KIRKSVILLE     CLOUDY    73  68  84 SW5       30.11R

$$

MOZ041-047>049-056>058-063>065-088>090-097-021600-
...EASTERN AND SOUTHERN MISSOURI...

CITY           SKY/WX    TMP DP  RH WIND       PRES   REMARKS
ST. LOUIS INTL MOSUNNY   85  69  58 VRB5      30.11S
SPIRIT OF STL  MOSUNNY   83  72  69 SW6       30.09S
COLUMBIA       MOSUNNY   78  69  73 SW9       30.11S
JEFFERSON CITY SUNNY     81  68  64 CALM      30.10S
ROLLA          SUNNY     81  68  64 SW10      30.12S
OSAGE BEACH    SUNNY     82  68  61 S8        30.12R
SPRINGFIELD    SUNNY     78  68  71 S8        30.12R
BRANSON        MOSUNNY   79  70  73 SE6       30.14S
JOPLIN         SUNNY     80  69  69 S13       30.09S
WEST PLAINS    SUNNY     81  67  62 S6        30.16R

$$

IAZ060-094-KSZ022-034>040-054-083-096-NEZ052-066-093-021600-
...KANSAS...SOUTHEAST NEBRASKA AND IOWA...

CITY           SKY/WX    TMP DP  RH WIND       PRES   REMARKS
TOPEKA         LGT RAIN  72  69  90 S9        30.01F
MANHATTAN      PTSUNNY   79  66  64 S13G22    29.96S
EMPORIA        CLOUDY    76  67  73 S9        30.03R
CHANUTE        SUNNY     79  69  71 S13       30.06S
WICHITA        MOSUNNY   81  66  60 SW15G23   30.01S
OMAHA          MOSUNNY   79  69  71 S17       29.93R
LINCOLN        SUNNY     81  68  64 S13       29.91S
FALLS CITY     CLOUDY    75  69  81 S10G20    29.98R
LAMONI         LGT RAIN  70  69  97 S13       30.06F FOG
DES MOINES     MOSUNNY   76  69  79 S17G25    29.97F

$$




USA.gov is the U.S. government's official web portal to all federal, state and local government web resources and services.